Location: ??????
(56.0120°N, 39.1740°E)
Time: 17:45:27
(UTC+00:00)

USA 238 - Pass Details

Date: 14 April 2026
Orbit: 883 x 1328 km, 63.4° (Epoch: 10 January)

Event Time Altitude Azimuth Distance (km) Brightness Sun altitude
Rises 17:17:17 0° 307° (NW) 3,865 9.0 -7.1°
Reaches altitude 10° 17:19:49 10° 307° (NW) 2,968 7.8 -7.4°
Maximum altitude 17:27:00 89° 222° (SW) 1,200 4.0 -8.3°
Enters shadow 17:34:48 11° 131° (SE) 3,218 5.5 -9.2°
